星链-30171 (STARLINK-30171 )

导读

STARLINK-30171是美国太空探索技术公司SpaceX星链(Starlink)星座的卫星之一,于2023年7月28日发射升空,属于星链第二代卫星。该卫星旨在为全球提供高速互联网服务,尤其服务于偏远地区与网络基础设施薄弱区域,星链系统依靠大规模低轨卫星组网,可实现全球覆盖,此星延续了星座部署,推进项目组网进程。

Basic Information
目录编号:
57469
目录名称:
STARLINK-30171
国际标识:
2023-107N
轨道中心:
EARTH
卫星名称:
星链-30171
卫星全名:
星链-30171 (STARLINK-30171 )
卫星状态:
在轨 (已飞行1056 天)
发射日期:
2023-07-28 UTC
国别 :
美国 (US)
星等 :
--
Orbit Information
数据来源 国际轨道数据 AOE轨道数据
星历时间 2026-06-18T15:00:09+0800
7小时前
查看轨道信息
2026-06-14T02:00:00+0800
4天前
查看轨道信息
半长轴 6861.179km 6861.193km
偏心率 0.0002848 0.000076
轨道倾角 43.008° 42.999°
近地点辐角 274.259° 246.522°
升交点赤经 131.301° 156.954°
平近点角 85.793° 307.726°
近地点 481.087km 482.534km
远地点 484.997km 483.578km
周期 94.267分钟 94.267分钟
每日圈数 15.275825 15.27578
Detailed Information
固有亮度:
5
最大亮度:
0.3
卫星平台:
Starlink v2.0 mini
覆盖范围:
全球
运营商:
太空探索技术公司
运营商所在国:
美国
制造商(研发单位):
太空探索技术公司
制造商所在国:
美国
使用方式:
暂无
Satellite Introduction
星链(Starlink)计划是由太空探索技术公司(SpaceX)提出的一个巨型低轨卫星互联网星座项目,计划在2019年至2024年间在太空搭建由约1.2万颗卫星组成的“星链”网络,其中1584颗将部署在地球上空550千米处的近地轨道,并从2020年开始工作。该卫星仍在工作。
2D Orbit Map
3D Orbit Map
Orbit Altitude Analysis Chart
Orbit Inclination Analysis Chart
Orbit Comprehensive Analysis Chart
View Comprehensive Chart